{"data":{"norad_id":54104,"intl_designator":"2022-136BF","name":"STARLINK-5203","alt_names":[],"object_type":"PAYLOAD","status":"ACTIVE","operator":null,"country":"US","launch_date":"2022-10-20","launch_site_code":"AFETR","launch_vehicle":null,"mission":null,"orbit_class":"UNKNOWN","rcs_meters":null,"size_class":null,"mass_kg":null,"dimensions":null,"purposes":["comms"],"wikipedia_slug":null,"has_3d_model":false,"image_url":null,"decayed_at":null,"tle_current":{"epoch":"2026-05-24T21:09:22.618656Z","epoch_age_seconds":78680,"freshness":"FRESH","line1":"1 54104U 22136BF  26144.88151179  .00000082  00000+0  23251-4 0  9991","line2":"2 54104  53.2160 316.6359 0001282  92.8541 267.2598 15.08838772198981","mean_motion":15.08838772,"eccentricity":0.0001282,"inclination_deg":53.216,"raan_deg":316.6359,"arg_perigee_deg":92.8541,"mean_anomaly_deg":267.2598,"bstar":2.3251e-5,"rev_number":19898,"period_min":95.437632351616,"perigee_km":538.86026972432,"apogee_km":540.63401521845,"semimajor_km":6917.8841424714,"source":"CELESTRAK","updated_at":"2026-05-25T13:38:17.658490Z"}}}